Hourly Data Report for October 04, 2017

All times are specified in Local Standard Time (LST). Add 1 hour to adjust for Daylight Saving Time where and when it is observed.

HAY RIVER A
NORTHWEST TERRITORIES

60°50'23.000" N
115°46'58.000" W
164.90 m
2202401
71935
YHY

Download Data

Hourly Data (October 2017)
Hourly Data Report for October 4, 2017
Temp Definition
°C
Dew Point Temp Definition
°C
Rel Hum Definition
%
Wind Dir Definition
10's deg

Wind Spd Definition
km/h
Visibility Definition
km
Stn Press Definition
kPa
Hmdx Definition


Wind Chill Definition


Weather Definition


TIME
00:00 Legend Double Dagger 5.6 2.0 77 1 4 24.1 100.11     LegendNANA
01:00 Legend Double Dagger 5.5 1.5 75 36 7 24.1 100.18     LegendNANA
02:00 Legend Double Dagger 5.2 1.8 78 1 5 24.1 100.23     Cloudy
03:00 Legend Double Dagger 4.8 1.7 80 26 8 24.1 100.26     LegendNANA
04:00 Legend Double Dagger 3.8 1.8 86 25 7 24.1 100.27     LegendNANA
05:00 Legend Double Dagger 3.3 1.4 87 24 5 24.1 100.28     Mostly Cloudy
06:00 Legend Double Dagger 2.4 0.6 88 23 4 24.1 100.27     LegendNANA
07:00 Legend Double Dagger 0.5 -0.7 92 20 4 24.1 100.27     LegendNANA
08:00 Legend Double Dagger 0.9 -0.2 92 18 5 24.1 100.27     Mostly Cloudy
09:00 Legend Double Dagger 2.4 0.4 87 20 6 24.1 100.23     LegendNANA
10:00 Legend Double Dagger 4.0 1.4 83 15 5 24.1 100.20     LegendNANA
11:00 Legend Double Dagger 6.7 2.0 72 14 10 24.1 100.13     Mostly Cloudy
12:00 Legend Double Dagger 7.6 2.3 69 12 11 24.1 100.10     LegendNANA
13:00 Legend Double Dagger 8.7 1.9 62 16 12 22.5 100.03     LegendNANA
14:00 Legend Double Dagger 8.3 3.4 71 8 19 24.1 99.97     Mostly Cloudy
15:00 Legend Double Dagger 7.6 3.8 77 7 20 24.1 99.95     LegendNANA
16:00 Legend Double Dagger 7.8 4.6 80 8 18 24.1 99.91     LegendNANA
17:00 Legend Double Dagger 8.2 5.0 80 8 16 24.1 99.86     Mostly Cloudy
18:00 Legend Double Dagger 8.0 4.7 80 8 12 24.1 99.82     LegendNANA
19:00 Legend Double Dagger 7.7 3.8 76 9 15 24.1 99.80     LegendNANA
20:00 Legend Double Dagger 6.5 3.5 81 9 10 24.1 99.75     Mostly Cloudy
21:00 Legend Double Dagger 6.3 2.8 78 10 13 24.1 99.72     LegendNANA
22:00 Legend Double Dagger 5.8 2.6 80 9 16 24.1 99.66     LegendNANA
23:00 Legend Double Dagger 5.4 2.6 82 9 16 24.1 99.60     Cloudy

Notes on Data Quality.

Legend

  • E = Estimated
  • M = Missing
  • NA = Not Available
  • ‡ = Partner data that is not subject to review by the National Climate Archives
Date modified: